BREEZE-M DEB

基本信息
目录编号:
41546
目录名称:
BREEZE-M DEB
国际标识:
2015-075G
轨道中心:
EARTH
物体状态:
在轨
发射日期:
2015-12-13 UTC
轨道信息
数据来源: 国际轨道数据
星历时间: 2024-01-03T21:46:20+0800
半长轴: 40984.452km
偏心率: 0.0237648
轨道倾角: 6.413°
近地点辐角: 141.215°
升交点赤经: 71.687°
平近点角: 220.554°
近地点: 33632.329km
远地点: 35580.305km
周期: 1376.222分钟
每日圈数: 1.046343
详细信息
发射场:
TTMTR
轨道高度:
MEO
数据来源:
AOE Integration Group
参考系:
TEME
时间系统:
UTC
历元类型:
SGP4
2D轨道图
3D轨道图
轨道高度分析图
轨道倾角分析图
轨道综合分析图
查看轨道综合分析图